Fort Payne, AL

3:47 PM CDT on July 25, 2016 (GMT -0500)
Fort Payne

Weather History for K4A9 - June, 2013

Change the Weather History Date:

Saturday, June 29, 2013

  Actual Average (KRMG) Record (KRMG)
Temperature  
Mean Temperature 77 °F 78 °F  
Max Temperature 86 °F 89 °F 105 °F (2012)
Min Temperature 68 °F 67 °F 58 °F (2015)
Cooling Degree Days 12 13  
Month to date cooling degree days 315  
Year to date cooling degree days 483  
Since 1 June cooling degree days 315  
Growing Degree Days 27 (Base 50)    
Moisture  
Dew Point 61 °F    
Average Humidity 63    
Maximum Humidity 94    
Minimum Humidity 29    
Precipitation  
Precipitation 0.07 in 0.15 in 1.00 in (2000)
Month to date precipitation 3.94  
Year to date precipitation 26.81  
Sea Level Pressure  
Sea Level Pressure 29.72 in    
Wind  
Wind Speed 2 mph (West)    
Max Wind Speed 12 mph    
Max Gust Speed 17 mph    
Visibility 10 miles    
Events      
T = Trace of Precipitation, MM = Missing Value Source: NWS Daily Summary

Daily Weather History Graph

Daily Weather History Graph

Search for Another Location

Airport or City:

Trip Planner

Search our weather history database for the weather conditions in past years. The results will help you decide how hot, cold, wet, or windy it might be!

Date:

Astronomy

Jun. 29, 2013 Rise Set
Actual Time 5:33 AM CDT 7:59 PM CDT
Civil Twilight 5:03 AM CDT 8:28 PM CDT
Nautical Twilight 4:27 AM CDT 9:04 PM CDT
Astronomical Twilight 3:47 AM CDT 9:44 PM CDT
Moon No Moon Rise 12:25 PM CDT (6/29)
Length of Visible Light 15h 24m
Length of Day
14h 26m
Waning Gibbous, 55% of the Moon is Illuminated
Jun 29
Waning Gibbous
Jun 29
Last Quarter
Jul 8
New
Jul 15
First Quarter
Jul 22
Full

Hourly Weather History & Observations

Time (CDT) Temp. Heat Index Dew Point Humidity Pressure Visibility Wind Dir Wind Speed Gust Speed Precip Events Conditions
12:15 AM 69.8 °F - 68.0 °F 94% 29.73 in 10.0 mi Calm Calm - N/A   Clear
12:35 AM 69.8 °F - 66.2 °F 88% 29.73 in 10.0 mi Calm Calm - N/A   Clear
12:55 AM 69.8 °F - 66.2 °F 88% 29.72 in 10.0 mi Calm Calm - N/A   Clear
1:15 AM 69.8 °F - 66.2 °F 88% 29.73 in 10.0 mi Calm Calm - N/A   Clear
1:35 AM 69.8 °F - 66.2 °F 88% 29.72 in 10.0 mi Calm Calm - N/A   Clear
1:55 AM 69.8 °F - 66.2 °F 88% 29.73 in 10.0 mi Calm Calm - N/A   Clear
2:15 AM 69.8 °F - 64.4 °F 83% 29.73 in 10.0 mi Calm Calm - N/A   Clear
2:35 AM 68.0 °F - 64.4 °F 88% 29.73 in 10.0 mi Calm Calm - N/A   Scattered Clouds
2:55 AM 68.0 °F - 64.4 °F 88% 29.73 in 10.0 mi Calm Calm - N/A   Scattered Clouds
3:15 AM 69.8 °F - 66.2 °F 88% 29.72 in 10.0 mi Calm Calm - N/A   Mostly Cloudy
3:35 AM 69.8 °F - 66.2 °F 88% 29.73 in 10.0 mi Calm Calm - N/A   Mostly Cloudy
3:55 AM 69.8 °F - 64.4 °F 83% 29.73 in 10.0 mi Calm Calm - N/A   Mostly Cloudy
4:15 AM 69.8 °F - 64.4 °F 83% 29.72 in 10.0 mi Calm Calm - N/A   Mostly Cloudy
4:35 AM 68.0 °F - 64.4 °F 88% 29.73 in 7.0 mi Calm Calm - N/A   Mostly Cloudy
4:55 AM 68.0 °F - 64.4 °F 88% 29.73 in 10.0 mi Calm Calm - N/A   Mostly Cloudy
5:15 AM 69.8 °F - 66.2 °F 88% 29.73 in 10.0 mi Calm Calm - N/A   Overcast
5:35 AM 69.8 °F - 66.2 °F 88% 29.73 in 10.0 mi Calm Calm - N/A   Overcast
5:55 AM 69.8 °F - 66.2 °F 88% 29.73 in 7.0 mi Calm Calm - N/A   Overcast
6:15 AM 69.8 °F - 66.2 °F 88% 29.73 in 7.0 mi Calm Calm - N/A   Scattered Clouds
6:35 AM 69.8 °F - 66.2 °F 88% 29.73 in 7.0 mi Calm Calm - 0.05 in   Scattered Clouds
6:55 AM 71.6 °F - 68.0 °F 88% 29.73 in 7.0 mi Calm Calm - 0.07 in   Clear
7:15 AM 71.6 °F - 68.0 °F 88% 29.73 in 7.0 mi Calm Calm - N/A   Clear
7:35 AM 73.4 °F - 69.8 °F 88% 29.73 in 10.0 mi Calm Calm - N/A   Clear
7:55 AM 73.4 °F - 68.0 °F 83% 29.73 in 10.0 mi Calm Calm - N/A   Clear
8:15 AM 75.2 °F - 68.0 °F 78% 29.73 in 10.0 mi Calm Calm - N/A   Clear
8:35 AM 77.0 °F - 68.0 °F 74% 29.74 in 10.0 mi Calm Calm - N/A   Clear
8:55 AM 77.0 °F - 66.2 °F 69% 29.74 in 10.0 mi Calm Calm - N/A   Clear
9:15 AM 78.8 °F - 64.4 °F 61% 29.74 in 10.0 mi SW 3.5 mph - N/A   Clear
9:35 AM 80.6 °F 81.5 °F 60.8 °F 51% 29.74 in 10.0 mi Calm Calm - N/A   Clear
9:55 AM 80.6 °F 81.8 °F 62.6 °F 54% 29.73 in 10.0 mi Calm Calm - N/A   Clear
10:15 AM 80.6 °F 81.8 °F 62.6 °F 54% 29.73 in 10.0 mi WNW 3.5 mph - N/A   Clear
10:35 AM 80.6 °F 81.5 °F 60.8 °F 51% 29.74 in 10.0 mi WNW 4.6 mph - N/A   Scattered Clouds
10:55 AM 82.4 °F 81.4 °F 53.6 °F 37% 29.74 in 10.0 mi NW 3.5 mph - N/A   Scattered Clouds
11:15 AM 84.2 °F - 51.8 °F 33% 29.74 in 10.0 mi West 10.4 mph 16.1 mph N/A   Scattered Clouds
11:35 AM - - - N/A% 29.74 in 10.0 mi West 11.5 mph - N/A   Mostly Cloudy
11:55 AM 84.2 °F - 51.8 °F 33% 29.74 in 10.0 mi West 8.1 mph 17.3 mph N/A   Scattered Clouds
12:15 PM 84.2 °F 82.8 °F 53.6 °F 35% 29.74 in 10.0 mi West 9.2 mph 17.3 mph N/A   Scattered Clouds
12:35 PM 84.2 °F 83.0 °F 55.4 °F 37% 29.74 in 10.0 mi West 9.2 mph 17.3 mph N/A   Clear
12:55 PM 84.2 °F - 51.8 °F 33% 29.73 in 10.0 mi WNW 8.1 mph - N/A   Scattered Clouds
1:15 PM 86.0 °F 84.5 °F 55.4 °F 35% 29.73 in 10.0 mi West 11.5 mph 16.1 mph N/A   Scattered Clouds
1:35 PM 84.2 °F 82.8 °F 53.6 °F 35% 29.73 in 10.0 mi WNW 9.2 mph 17.3 mph N/A   Mostly Cloudy
1:55 PM 86.0 °F 84.2 °F 53.6 °F 33% 29.73 in 10.0 mi NW 9.2 mph - N/A   Scattered Clouds
2:15 PM 86.0 °F - 51.8 °F 31% 29.72 in 10.0 mi WNW 6.9 mph - N/A   Scattered Clouds
2:35 PM 84.2 °F 82.8 °F 53.6 °F 35% 29.72 in 10.0 mi WSW 9.2 mph - N/A   Mostly Cloudy
2:55 PM 86.0 °F - 51.8 °F 31% 29.72 in 10.0 mi West 5.8 mph - N/A   Scattered Clouds
3:15 PM 86.0 °F 84.2 °F 53.6 °F 33% 29.71 in 10.0 mi West 9.2 mph - N/A   Clear
3:35 PM 84.2 °F - 51.8 °F 33% 29.71 in 10.0 mi WNW 5.8 mph - N/A   Clear
3:55 PM 86.0 °F - 51.8 °F 31% 29.71 in 10.0 mi West 9.2 mph - N/A   Clear
4:15 PM 86.0 °F - 50.0 °F 29% 29.71 in 10.0 mi West 10.4 mph - N/A   Clear
4:35 PM 86.0 °F - 51.8 °F 31% 29.70 in 10.0 mi West 9.2 mph - N/A   Clear
4:55 PM 86.0 °F - 50.0 °F 29% 29.70 in 10.0 mi West 9.2 mph - N/A   Clear
5:15 PM 86.0 °F - 51.8 °F 31% 29.69 in 10.0 mi West 6.9 mph - N/A   Clear
5:35 PM 86.0 °F - 51.8 °F 31% 29.69 in 10.0 mi West 10.4 mph - N/A   Clear
5:55 PM 82.4 °F - 51.8 °F 35% 29.69 in 10.0 mi West 6.9 mph - N/A   Clear
6:15 PM 82.4 °F 81.4 °F 53.6 °F 37% 29.70 in 10.0 mi WNW 3.5 mph - N/A   Clear
6:35 PM 80.6 °F 80.5 °F 55.4 °F 42% 29.70 in 10.0 mi West 4.6 mph - N/A   Clear
6:55 PM 80.6 °F 80.5 °F 55.4 °F 42% 29.69 in 10.0 mi Calm Calm - N/A   Clear
7:15 PM 80.6 °F 80.8 °F 57.2 °F 45% 29.69 in 10.0 mi Calm Calm - N/A   Clear
7:35 PM 78.8 °F - 60.8 °F 54% 29.70 in 10.0 mi Calm Calm - N/A   Clear
7:55 PM 75.2 °F - 62.6 °F 65% 29.70 in 10.0 mi Calm Calm - N/A   Clear
8:15 PM 73.4 °F - 62.6 °F 69% 29.71 in 10.0 mi Calm Calm - N/A   Clear
8:35 PM 71.6 °F - 62.6 °F 73% 29.71 in 10.0 mi Calm Calm - N/A   Clear
8:55 PM 71.6 °F - 60.8 °F 69% 29.71 in 10.0 mi Calm Calm - N/A   Clear
9:15 PM 69.8 °F - 62.6 °F 78% 29.72 in 10.0 mi Calm Calm - N/A   Clear
9:35 PM 69.8 °F - 62.6 °F 78% 29.73 in 10.0 mi Calm Calm - N/A   Mostly Cloudy
9:55 PM 69.8 °F - 62.6 °F 78% 29.74 in 10.0 mi Calm Calm - N/A   Mostly Cloudy
10:15 PM 69.8 °F - 62.6 °F 78% 29.74 in 10.0 mi Calm Calm - N/A   Scattered Clouds
10:35 PM 69.8 °F - 62.6 °F 78% 29.74 in 10.0 mi Calm Calm - N/A   Mostly Cloudy
10:55 PM 69.8 °F - 62.6 °F 78% 29.74 in 10.0 mi Calm Calm - N/A   Overcast
11:15 PM 68.0 °F - 62.6 °F 83% 29.74 in 10.0 mi Calm Calm - N/A   Scattered Clouds
11:35 PM 68.0 °F - 62.6 °F 83% 29.74 in 10.0 mi Calm Calm - N/A   Scattered Clouds
11:55 PM 68.0 °F - 62.6 °F 83% 29.74 in 10.0 mi Calm Calm - N/A   Scattered Clouds